Location: Pl�tzky
(52.0521°N, 11.8020°E)
Time: 23:02:35
(UTC+00:00)

N. Korean satellite - Pass Details

Date: 01 February 2021
Orbit: 451 x 502 km, 97.2° (Epoch: 06 March)

Event Time Altitude Azimuth Distance (km) Brightness Sun altitude
Rises 04:41:58 0° 15° (NNE) 2,499 10.3 -20.1°
Reaches altitude 10° 04:44:03 10° 18° (NNE) 1,612 9.4 -19.8°
Maximum altitude 04:47:29 68° 102° (ESE) 495 6.7 -19.3°
Drops below altitude 10° 04:50:52 10° 186° (S) 1,585 9.1 -18.8°
Sets 04:52:53 0° 189° (S) 2,451 10.1 -18.5°
